GFSNIL_con_mlcape_021.txt.gz
CAPE
1650 1711 1371 1193 467 210 99 28 63 87 160 117 0 0 0 0 0 0 0 0 0 2
1517 1578 1276 989 461 208 24 13 15 48 66 35 0 0 1 0 7 0 36 34 46 23
1418 1336 1373 623 179 3 16 22 49 41 76 16 0 4 1 0 0 0 17 44 35 36
1223 1062 496 416 9 0 0 0 53 29 9 42 41 40 15 0 8 0 27 62 37 58
763 344 594 159 7 0 0 0 0 1 21 62 66 44 44 29 11 11 23 0 39 59
231 395 295 0 0 0 2 17 5 4 27 36 75 70 71 20 10 30 12 22 52 73
209 351 213 0 0 0 0 0 0 0 0 10 32 75 70 36 30 39 69 49 131 150
329 247 99 0 0 0 0 0 0 0 0 3 34 48 10 37 85 244 179 194 203 123
388 360 174 1 0 0 0 0 0 0 1 28 23 18 0 37 224 410 226 138 218 153
520 514 278 1 0 0 0 0 0 0 4 73 81 37 24 32 214 510 430 270 208 62
561 487 274 14 0 0 0 0 0 0 37 166 189 64 69 83 212 313 378 291 190 112
653 527 239 27 0 0 0 12 6 27 110 134 248 90 32 22 31 59 77 120 73 11
686 526 284 87 14 11 2 1 110 80 87 44 156 68 16 0 7 23 15 0 0 0
641 435 294 169 111 102 93 135 139 53 93 100 154 31 7 0 0 16 12 0 10 0

GFSNIL_con_mlcape_024.txt.gz
CAPE
2539 2310 2282 2356 1606 687 62 104 375 565 468 437 405 260 51 0 5 13 8 9 7 0
2527 2399 1979 2065 2307 1105 540 144 278 430 421 431 381 142 53 5 24 12 5 8 12 12
2279 2433 2338 2366 2155 1151 657 213 179 281 301 309 272 110 175 14 10 21 0 10 16 49
2020 2237 2486 2179 1913 1205 511 208 158 194 206 287 171 179 216 92 0 24 54 34 19 45
2069 2200 2243 2007 1272 641 125 12 10 77 12 85 201 254 186 114 2 44 58 44 52 72
2168 2091 1683 1191 782 163 0 0 0 0 0 20 233 265 218 209 138 78 52 52 93 110
2302 1876 1467 1370 461 12 0 0 0 0 0 10 203 173 122 240 179 115 106 160 198 206
2360 1649 1280 1612 583 20 0 0 0 0 0 139 151 25 125 159 180 177 276 312 274 291
2227 1367 1499 1297 607 130 2 0 20 0 4 71 1 0 11 161 105 167 408 379 373 389
2197 1635 1389 1291 867 442 34 1 162 112 139 79 42 10 9 22 58 119 466 596 650 270
2207 1653 1518 1380 1008 511 77 16 98 170 246 289 142 184 52 19 58 110 310 151 84 57
1858 1743 1638 1455 1143 621 333 112 160 218 314 408 407 225 103 54 112 144 62 32 18 19
1838 1805 1725 1267 1146 816 579 333 367 401 607 330 523 86 45 96 235 117 36 7 6 0
1855 1608 1408 1305 937 739 615 467 546 577 543 503 528 561 22 20 130 86 44 12 0 17

GFSNIL_con_mlcape_027.txt.gz
CAPE
3290 2328 2076 1920 1394 1008 264 96 1077 1306 1297 737 582 328 230 46 24 16 15 7 4 0
3313 2806 1749 1737 2231 1691 755 165 1070 1059 835 765 458 317 209 116 75 70 47 6 23 13
3150 3169 2801 2734 2604 1952 1290 407 596 775 815 667 368 317 276 93 137 103 36 2 14 24
2952 2875 2970 2599 2660 2502 1930 1037 666 792 710 589 327 430 312 178 146 92 95 72 73 36
3023 2893 2795 2854 2805 2930 2180 1411 809 642 558 394 390 307 263 234 41 24 60 106 93 44
3169 2980 2733 2955 2958 2847 2226 1364 663 474 360 15 317 229 482 327 219 80 62 77 77 78
3273 3196 3034 3161 2942 2677 1939 1123 373 133 319 201 290 152 529 315 235 179 82 93 170 131
3414 3394 3381 2979 2829 2450 1716 822 463 239 160 289 21 178 419 147 224 312 173 147 245 349
3505 3516 3242 2873 2788 2219 1378 668 464 262 125 193 302 182 68 216 171 294 351 349 475 534
3572 3492 3152 2760 2537 2316 1397 773 473 225 312 383 521 32 0 0 64 273 334 451 743 519
3369 3312 2798 2422 2660 2361 1736 954 446 358 359 444 585 227 1 0 18 190 277 583 911 628
3318 3137 2783 2260 2415 2293 1957 1258 686 479 563 606 655 383 171 37 130 259 504 691 620 260
3077 2780 2436 2282 2207 2142 1771 1389 836 496 555 500 591 594 319 142 516 498 554 946 606 73
2659 2508 2489 2137 2198 1627 1168 843 712 509 413 469 605 700 277 154 656 611 713 668 368 114

GFSNIL_con_mlcape_030.txt.gz
CAPE
2092 2786 2577 1826 2050 1204 1118 608 1108 1036 1524 1380 760 502 196 208 42 99 81 15 16 0
3282 2441 2681 2319 1726 2071 1052 1295 1116 1168 1610 1265 940 492 399 189 114 164 198 87 52 21
3590 3412 2801 2423 2178 1531 1927 1135 1322 1190 1280 1032 910 645 524 160 238 199 139 103 26 110
3512 3785 3160 2734 2287 2624 1743 1419 1376 1159 1001 1226 1130 787 546 297 227 160 82 46 27 61
3738 3729 3590 2545 3044 2955 2338 2091 1225 1092 1166 980 1054 759 694 100 102 362 298 208 166 40
3639 3583 3414 3308 2528 3046 2855 2576 1386 1109 964 1009 814 560 609 434 148 262 36 155 224 130
3612 3494 3362 3384 3296 3080 3332 3003 1847 1408 1110 938 702 659 673 661 563 263 224 289 218 281
3665 3592 3578 3420 3486 3326 3366 3135 2242 1531 1219 980 533 613 494 654 612 405 296 261 275 216
3369 3792 3795 3664 3536 3425 3300 2955 2195 1496 1052 787 450 376 212 585 506 551 544 302 533 393
3266 3786 3843 3827 3598 3508 3276 2725 1958 1336 881 515 468 135 69 460 474 361 526 656 601 685
3572 3972 4031 3893 3692 3400 3185 2436 1701 1085 729 487 601 470 119 126 147 320 527 609 638 637
3873 4264 4097 3813 3521 3089 3061 2201 1713 1040 689 650 811 446 246 2 3 0 15 310 488 719
4303 4163 3919 3559 3151 3058 3044 2223 1503 1014 814 754 774 604 324 54 58 50 120 449 416 361
4033 3994 3736 3018 2518 2468 2502 2214 1628 1104 817 761 706 721 439 198 432 517 513 307 455 781

GFSNIL_con_mlcape_033.txt.gz
CAPE
1650 2218 1383 1186 1685 940 775 449 675 696 710 721 354 119 116 50 8 38 0 20 0 0
1120 1433 2225 2051 1223 1629 863 685 505 973 1042 862 558 273 167 62 0 9 5 0 8 0
1668 1616 1772 2343 2147 1210 1618 1158 800 875 1060 933 746 326 174 132 39 59 85 35 0 0
2452 2139 2026 1900 2294 1662 1424 1455 1117 1013 1000 918 734 335 347 171 86 153 16 38 9 46
2613 2968 2564 2230 2038 1999 1654 1497 1247 929 954 816 671 495 433 248 185 28 153 66 28 0
2811 2818 3030 2698 2575 2151 2009 1662 1404 1080 786 729 617 433 465 298 157 140 215 106 11 1
2962 2955 2960 3324 2825 2678 2523 2158 1706 1344 1015 803 775 573 626 464 273 52 250 285 236 117
3016 3143 3259 3269 3284 2596 2812 2600 2014 1499 1181 988 854 711 598 472 345 148 93 273 144 175
2915 3287 3355 3312 3254 3125 2595 2891 2571 1840 1437 1089 971 822 653 366 379 201 290 273 257 244
2979 3115 3324 3370 3295 3305 3044 3077 2905 2291 1749 1382 1062 703 561 519 422 371 514 385 277 393
2755 3144 3402 3491 3443 3398 3320 3168 2797 2301 1895 1429 993 482 266 335 503 527 492 510 526 436
2754 3166 3446 3596 3617 3497 3364 3042 2566 2082 1594 1283 815 522 232 64 84 314 423 461 568 499
2795 3252 3591 3708 3679 3412 3166 2838 2148 1800 1411 1010 804 507 356 163 227 169 116 88 210 55
3236 3638 3861 3720 3495 3309 2850 2522 2184 1712 1260 909 775 606 464 265 271 164 32 17 107 267

GFSNIL_con_mlcape_036.txt.gz
CAPE
1006 717 634 827 618 696 694 936 766 852 853 465 107 4 0 0 0 0 0 0 0 0
1115 1298 1372 1184 979 832 606 430 591 654 706 438 171 100 21 0 0 0 0 0 0 0
890 1080 1601 1563 1313 971 496 503 369 532 501 433 288 228 114 16 2 0 0 0 0 0
1095 829 1276 1739 1901 1495 1155 865 485 604 541 466 389 335 213 82 2 0 0 17 0 0
1451 1276 835 1288 1688 1910 1718 1222 967 704 794 700 590 478 377 102 24 2 0 3 58 0
1847 1776 1502 1173 1209 1449 1682 1542 1172 1067 993 837 734 628 482 130 42 1 1 16 28 28
1977 2099 2007 1907 1612 1491 1622 1721 1401 1237 1223 1033 789 691 512 258 121 79 63 5 60 83
2144 2298 2361 2385 2278 2002 1780 1790 1613 1439 1183 998 838 734 572 420 170 115 73 95 119 240
2542 2562 2520 2597 2694 2439 2184 2160 1807 1512 1295 1089 954 801 635 537 351 251 154 61 56 181
2757 2725 2726 2727 2842 2743 2455 2495 2164 1753 1520 1448 1322 1007 809 717 602 476 380 219 76 24
2810 2757 2863 2941 2879 2880 2706 2534 2421 2073 1829 1736 1646 1234 943 795 837 618 448 241 145 138
2728 2688 2950 2923 2946 2944 2985 2701 2630 2278 2065 2061 1932 1453 1084 901 851 637 535 334 374 598
2644 2724 2856 2965 3016 3065 3064 2816 2572 2393 2301 2205 2188 1617 1061 552 417 424 420 420 448 542
2358 2563 2823 3067 3137 3125 3017 2666 2561 2458 1957 1552 1559 1248 790 281 315 165 62 179 272 317

GFSNIL_con_mlcape_039.txt.gz
CAPE
717 656 599 497 300 637 939 760 989 1197 969 739 396 97 7 0 0 0 0 0 0 0
722 694 646 543 341 376 791 833 798 1000 771 794 463 85 0 0 0 0 0 0 0 0
744 739 758 604 450 455 659 621 688 881 672 695 420 99 5 2 0 0 0 0 0 0
889 980 1012 941 598 556 835 576 644 777 617 594 463 163 59 34 18 0 0 0 0 0
770 838 991 1108 963 895 967 662 591 537 531 492 463 302 156 109 91 10 0 0 0 0
896 831 775 926 1051 1206 1214 1115 694 591 669 530 460 313 253 209 202 95 3 0 0 0
1080 993 852 832 880 1039 1401 1377 1350 943 850 800 614 502 389 333 309 257 81 0 0 0
1192 1199 1144 1070 940 896 1121 1507 1441 1382 1085 971 932 795 632 529 475 430 276 33 9 6
1348 1445 1476 1468 1421 1295 1096 1126 1211 1049 1123 1109 1031 942 883 815 650 547 411 163 56 72
1629 1635 1728 1858 1854 1779 1632 1447 1323 1161 984 963 1137 958 939 850 776 602 431 260 92 96
1928 1894 1914 1989 2012 2127 2093 1870 1665 1450 1204 1088 1070 996 930 918 816 457 390 420 272 245
2149 2125 2218 2230 2152 2252 2388 2209 2097 1653 1397 1342 1286 1114 1014 737 727 758 819 634 556 385
2228 2270 2360 2351 2373 2379 2466 2347 2122 1880 1522 1575 1688 1455 989 864 873 1187 1046 623 465 315
2264 2400 2438 2507 2592 2608 2603 2566 2234 1947 1738 1829 1953 1360 945 786 985 1351 942 566 149 188

GFSNIL_con_mlcape_042.txt.gz
CAPE
406 409 406 453 445 328 231 413 931 964 941 901 787 495 219 18 0 0 0 0 0 0
447 474 423 498 444 451 317 580 932 1045 1039 941 807 486 220 27 0 0 0 0 0 0
430 456 497 515 485 453 420 359 577 842 826 882 840 446 262 62 3 0 0 0 0 0
544 568 534 539 491 498 480 421 350 669 805 782 779 424 344 152 40 2 0 0 0 0
644 655 554 525 525 519 556 458 316 576 737 698 722 444 440 303 104 52 22 0 0 0
718 719 643 604 681 641 642 554 326 494 683 690 720 514 375 366 231 128 89 45 0 0
662 692 720 777 843 898 824 714 451 530 731 750 698 584 471 400 344 255 162 116 36 0
655 656 679 718 838 987 1079 975 751 504 704 668 668 628 563 475 431 350 313 240 154 20
821 835 781 763 741 800 985 1161 1073 893 721 751 793 717 660 658 574 481 467 432 362 230
894 986 1000 958 877 805 810 979 1137 1094 986 803 980 963 841 777 790 798 698 647 528 213
1044 1073 1181 1178 1139 1085 958 848 929 1115 1142 1108 1065 950 895 938 1010 807 794 674 434 352
1213 1214 1255 1392 1440 1418 1361 1261 1152 1143 1182 1132 1118 815 756 740 845 721 825 619 542 563
1318 1379 1385 1477 1638 1715 1725 1709 1681 1540 1389 1314 1304 849 792 755 846 901 878 761 579 563
1613 1665 1716 1718 1742 1856 1909 2050 2051 1965 1848 1501 1356 1182 824 794 931 1028 995 547 623 458

GFSNIL_con_mlcape_045.txt.gz
CAPE
699 786 806 855 838 860 880 873 959 1212 1354 1385 1462 1367 1097 676 416 170 17 0 0 0
706 734 738 824 966 882 1013 972 841 956 1134 1450 1483 1445 1180 783 480 137 44 6 0 0
673 764 807 904 871 888 1043 1045 902 1097 1487 1761 1617 1507 1259 928 658 240 93 44 8 0
700 805 868 925 932 914 975 1064 1121 1015 1361 1590 1423 1426 1344 1071 706 311 230 64 33 0
786 898 871 915 990 989 913 1038 1129 1118 1072 1377 1501 1413 1273 1226 791 549 383 180 65 0
837 920 925 958 1074 1139 1020 1053 1087 1186 1139 1072 1354 1350 1244 1283 1008 691 550 368 209 58
874 939 959 1071 1155 1178 1123 1033 1053 1108 1185 1151 1173 1362 1246 1188 1136 859 685 536 404 293
938 1056 1162 1246 1213 1258 1289 1177 1103 1057 1155 1221 1109 1223 1240 1127 1114 967 816 724 563 444
1054 1180 1164 1292 1328 1339 1340 1370 1344 1159 1122 1195 1083 1000 938 1236 1174 1077 995 988 838 628
1085 1137 1261 1351 1413 1408 1471 1612 1468 1381 1246 1208 1250 733 644 780 1273 1274 1270 1161 1113 920
1149 1186 1345 1364 1330 1381 1487 1523 1686 1609 1524 1362 1352 912 577 606 1024 1384 1436 1331 1281 1126
1106 1210 1438 1433 1356 1428 1432 1434 1494 1729 1770 1656 1556 1053 745 611 899 1291 1600 1447 1298 1094
1195 1314 1382 1445 1564 1646 1592 1483 1487 1575 1826 1881 1840 1428 787 695 1076 1184 1397 1222 1051 646
1463 1442 1568 1743 1835 1920 1942 1916 1906 1772 1758 1737 1716 1774 851 638 1114 1343 1191 836 647 490

GFSNIL_con_mlcape_048.txt.gz
CAPE
1718 1198 1078 1192 1058 1117 997 740 870 1315 1677 2036 1847 2227 2203 1967 1587 1093 1081 592 60 0
1749 1478 1128 1320 1717 1347 1390 992 1093 1272 1641 1679 1905 2175 2245 1982 1805 1123 1192 738 465 27
1776 1826 1666 1783 1714 1693 1645 1578 1134 1505 1444 1735 1919 2216 2345 1978 1893 1572 1028 685 436 247
1688 1686 1881 1712 1912 1989 1975 2053 1910 1680 1544 1532 1954 2463 2532 2286 1788 1801 1278 670 467 520
1672 1720 1677 1827 1939 2078 2005 2219 2249 2119 1910 1655 1848 2420 2514 2335 1767 1852 1520 1022 671 550
1673 1655 1741 1924 2006 2110 2082 2189 2134 2285 2277 1971 1695 1964 2357 2251 2117 1904 1754 1269 1083 661
1851 1588 1704 2022 2100 2115 2228 2209 2241 2318 2422 2230 2139 1899 1893 2113 2124 2150 1871 1623 1209 991
1841 2043 2010 2074 2173 2274 2330 2344 2265 2279 2390 2357 2138 1789 1881 2019 2083 2236 2139 1785 1467 1164
1957 2182 2072 2134 2244 2332 2340 2465 2468 2326 2317 2191 2054 1592 1226 1862 2043 2160 2310 2195 1852 1499
2017 2133 2214 2233 2281 2324 2367 2404 2443 2383 2360 2294 2360 1663 1260 1120 1887 2050 2257 2380 2237 1841
2046 2090 2261 2323 2302 2425 2498 2394 2557 2574 2515 2492 2511 2028 1319 1061 1398 1851 2252 2450 2399 2266
2029 2078 2258 2276 2286 2606 2439 2512 2483 2472 2604 2763 2619 2121 1515 1137 1413 1659 2050 2550 2549 2441
2103 2267 2231 2315 2512 2477 2448 2336 2278 2286 2510 2682 2747 2646 1796 1178 1485 1495 1681 2073 2351 1900
2342 2455 2501 2603 2567 2479 2403 2239 2302 2237 2350 2397 2428 2415 1881 1478 1508 1158 986 1502 1890 2228

GFSNIL_con_mlcape_051.txt.gz
CAPE
2017 1332 970 803 1228 1131 909 722 1075 2494 2028 1981 2046 1976 2362 2133 2053 1744 1611 1206 146 0
2583 1951 1287 1019 1539 1301 1599 875 977 1205 1893 1983 2073 2265 2466 1998 2397 1784 1668 1422 1160 134
2809 2600 1987 1800 1866 1744 1618 1806 1456 1408 1558 1949 2228 2359 2575 2087 2167 2287 1652 1169 1218 929
2749 2773 2760 2240 2270 2152 2632 2505 2005 2214 1847 1911 2159 2471 2829 2513 2103 2453 2235 1496 1274 1164
2705 2780 2661 2694 2300 2640 2489 2864 2964 2258 2597 2153 2120 2451 2726 2823 1843 2349 2443 2077 1363 1124
2709 2732 2604 2629 2819 2676 2858 2903 2850 2960 2703 2575 2310 2246 2934 3084 2840 2439 2568 2399 1987 1369
2716 2749 2725 2636 2797 2838 2960 3037 3044 3002 3042 2986 2830 2494 2615 3076 3109 2909 2503 2629 2353 1847
2651 3000 2925 2785 2696 3006 2991 3144 3192 3247 3239 3301 3210 2643 2543 2407 2901 3128 2815 2634 2690 2324
2675 2986 3179 3059 2966 3014 3025 3050 3248 3231 3319 3291 3114 2484 1957 2445 2482 2945 3068 2836 2932 2592
2748 2950 3249 3332 3248 3242 3171 3169 3081 3306 3377 3397 3422 2762 1842 1740 2470 2692 2985 3010 3034 2977
2707 2935 3204 3439 3415 3403 3417 3312 3353 3382 3509 3463 3558 3198 2371 1563 1961 2343 2618 2909 2911 3012
2814 2978 3274 3353 3505 3491 3466 3526 3533 3590 3612 3579 3580 3016 2665 2195 2043 2164 2382 2640 2921 2728
2938 3143 3110 3285 3537 3523 3609 3522 3201 3310 3524 3619 3681 3237 2481 2268 2507 2299 2182 2391 2532 2447
2907 3233 3339 3499 3562 3598 3520 3024 3276 3217 3470 3553 3505 3492 2502 1888 1922 1824 1899 2212 2141 2290

GFSNIL_con_mlcape_054.txt.gz
CAPE
1406 2124 635 585 959 557 1372 1061 1625 1704 1656 2073 2218 1702 2236 2448 2158 2216 1652 1743 40 52
1937 1388 2081 773 807 1623 1073 1113 2344 1973 1894 2251 2256 2433 1658 2559 2401 2106 1970 1608 1459 97
2857 1839 1340 1939 874 687 1600 2020 2264 2401 2286 2331 2218 2203 2365 2272 2274 2177 2284 1701 1576 959
2680 2921 2129 1464 1859 1195 1404 1341 1720 2487 2521 2175 2209 2097 2577 2582 2476 2191 2302 1901 1545 1388
2822 2936 2841 2101 1895 2085 2088 2683 1873 2113 2514 2286 2115 2208 2614 2596 2163 2677 2586 2200 1735 1900
2895 2975 2997 2900 2257 2428 2534 2276 3125 2929 2266 2414 2295 2209 2386 2735 3010 2391 2735 2876 2348 1513
3004 3100 3188 3129 2985 2673 2506 2942 2601 2999 3066 2608 2712 2410 2463 2736 2997 3041 2675 2931 2935 2408
2969 3027 3096 3124 3120 3211 3080 2789 3190 3097 3102 3192 2907 2909 2542 2542 2948 3213 3127 2728 2998 2844
2891 3053 3205 3207 3226 3156 3291 3263 3213 3395 3356 3117 3340 3102 2746 2666 2691 3155 3168 3151 2750 2944
2879 3016 3187 3444 3361 3349 3268 3417 3267 3404 3444 3313 3383 3154 2723 2458 2690 2737 2925 3130 3115 2859
2907 3044 3281 3423 3630 3545 3496 3414 3525 3484 3591 3479 3557 3284 2838 2352 2506 2702 2762 2837 3160 3129
2822 3211 3344 3499 3666 3825 3727 3751 3660 3754 3613 3593 3508 3293 3100 2690 2409 2421 2505 2827 2926 3090
2601 3078 3406 3534 3744 3922 3968 3839 3930 3846 3783 3708 3664 3673 3068 2857 3070 2698 2279 2557 2727 2680
2817 2887 3420 3667 3805 3980 4048 3952 3835 3799 3868 3927 3924 3971 3328 2822 3206 3013 2823 2670 2467 2606

GFSNIL_con_mlcape_057.txt.gz
CAPE
995 1011 372 321 43 165 859 1144 1123 1358 1603 1749 1596 1268 1723 1244 1393 1386 407 757 337 0
426 1193 1189 256 507 601 420 1041 1277 1404 1394 1780 1669 1362 1086 1855 1792 1883 1519 738 854 72
1060 480 1169 1272 343 227 720 978 771 1553 1538 1548 1780 1693 1493 1411 2320 1826 1864 1586 1054 561
1794 1456 753 1329 1424 392 188 734 2305 1991 1949 1674 1510 1910 2098 1620 1776 2191 2041 1889 1606 1109
1780 2356 1798 1034 1069 1452 593 312 856 2174 2358 1919 1626 1684 1785 1910 1906 1674 1885 2078 1744 1525
1741 1917 2393 2103 1316 1093 1331 900 638 820 1960 2216 1958 1904 1656 1494 2075 2073 2275 2150 2009 1635
2206 2261 2278 2574 2316 1531 1429 1419 1382 1535 1320 2128 2175 1931 1856 1873 1637 1793 1708 2084 2525 2234
2233 2485 2451 2377 2574 2471 1668 1911 1792 1602 2375 2311 2297 2204 2014 1925 1996 2058 2014 1831 2208 2426
2592 2617 2570 2601 2585 2769 2681 1992 2089 2512 2058 2392 2605 2579 2211 2191 2205 2224 2222 2198 2303 2357
2577 2737 2783 2867 2877 2847 2822 2868 2632 2295 2688 2599 2701 2579 2392 2344 2388 2359 2478 2457 2497 2578
2347 2710 2815 2858 2954 2890 2924 2941 2973 2958 2774 2852 2979 2821 2478 2402 2682 2626 2484 2613 2870 2868
2355 2656 2865 2857 2959 3058 3052 3072 3015 3131 3125 3050 3077 2896 2795 2535 2713 2791 2743 2688 2704 2889
2491 2664 2763 3007 3057 3264 3251 3191 3249 3186 3273 3247 3132 3192 2879 2766 2953 2700 2643 2639 2620 2588
2626 2794 3044 3064 3249 3316 3484 3538 3448 3434 3393 3406 3532 3500 3100 2838 3127 3130 2961 2703 2523 2420

GFSNIL_con_mlcape_060.txt.gz
CAPE
404 391 244 101 91 0 33 334 478 838 1274 1472 1417 1306 1007 1014 1033 995 736 584 261 0
539 395 254 208 47 10 74 329 696 890 1227 1360 1571 1434 1270 1082 1171 1241 1112 394 502 338
411 706 805 306 181 186 71 170 757 1057 1063 1253 1329 1457 1333 1357 1401 1394 1446 1332 922 463
433 254 444 1005 630 190 187 456 643 852 1238 1312 1539 1453 1399 1230 1258 1489 1639 1651 1381 986
771 742 396 292 964 932 491 147 257 1310 1572 1228 1346 1670 1479 1309 1381 1474 1574 1795 1652 1474
882 1011 958 635 411 753 874 610 254 496 1061 1904 1787 1605 1579 1555 1508 1541 1428 1631 1696 1492
818 1231 1501 1331 950 571 640 899 783 499 637 1273 1896 1840 1506 1422 1619 1622 1393 1416 1459 1497
1109 1056 1417 1723 1645 1276 868 797 861 876 887 1014 1265 1630 1807 1593 1457 1476 1536 1543 1643 1841
1274 1505 1370 1468 1725 1898 1690 1330 1216 1115 1096 1202 1317 1516 1580 1800 1792 1688 1557 1489 1489 1474
1404 1535 1775 1800 1835 1901 1934 1817 1509 1534 1374 1099 1585 1806 1766 1762 1942 1874 1904 1909 1904 1911
1605 1761 1909 2080 2095 2110 2197 2270 2116 1755 1787 1943 1837 1754 1828 1910 2102 2158 2102 2098 2124 2146
1755 1937 2148 2297 2360 2388 2517 2548 2563 2576 2422 2173 2262 2261 2066 1924 2163 2257 2383 2395 2312 2342
1413 1969 2171 2304 2453 2588 2678 2693 2769 2772 2821 2828 2733 2540 2275 2265 2597 2469 2460 2513 2585 2470
1518 1600 2049 2360 2574 2598 2755 2807 2815 2836 2861 2874 2897 2930 2472 2320 2855 2860 2840 2728 2672 2613

GFSNIL_con_mlcape_063.txt.gz
CAPE
58 19 13 9 5 24 41 93 62 364 1162 1193 1126 1083 900 880 642 836 768 556 500 69
131 94 35 19 20 0 10 89 173 199 413 799 1017 1252 1182 1136 748 920 820 786 637 498
148 121 147 57 40 5 5 35 134 155 464 718 917 1159 1341 1330 1097 872 988 1054 917 462
213 236 214 165 106 135 37 5 12 218 438 869 1073 1155 1189 1266 1368 1133 1073 1121 1190 1174
235 283 389 446 179 105 70 89 135 64 325 703 1076 1245 1234 1184 1227 1323 1225 1175 1277 1364
280 233 177 271 624 583 315 167 123 313 573 803 915 1012 1196 1207 1237 1225 1244 1189 1171 1188
423 450 394 273 190 354 575 514 405 327 359 515 755 1287 1518 1503 1472 1333 1277 1289 1418 1427
347 486 602 606 539 347 396 519 455 336 337 581 601 706 1048 1657 1613 1507 1362 1329 1357 1491
493 547 689 852 867 842 647 517 621 534 297 285 644 719 667 896 1353 1501 1504 1399 1462 1538
781 738 742 983 1293 1313 1111 997 705 771 764 556 559 653 697 847 1075 1143 1168 1244 1346 1418
949 1016 1150 1098 1144 1326 1547 1472 1230 1018 1084 1080 1052 1041 844 784 1045 1247 1414 1479 1548 1626
1030 1040 1208 1442 1405 1410 1567 1768 1757 1603 1457 1467 1511 1268 1138 1117 1342 1455 1584 1804 1849 1879
1000 1157 1324 1378 1561 1680 1885 1859 2041 2189 2216 1929 1839 1815 1616 1355 1625 1716 1854 2004 2125 2097
1188 1325 1540 1725 1880 2010 2124 2263 2362 2416 2473 2526 2459 2407 1915 1704 2128 2209 2279 2311 2370 2367

GFSNIL_con_mlcape_066.txt.gz
CAPE
0 0 0 0 0 0 0 0 0 40 295 723 950 980 878 724 723 674 685 643 567 386
0 0 0 0 0 0 0 0 0 45 82 238 571 899 1023 1013 914 854 660 835 840 604
31 0 0 0 0 0 0 0 7 95 174 205 346 618 856 972 1108 1101 1001 794 907 879
43 37 22 3 0 0 0 0 0 22 75 134 272 508 680 867 1095 1253 1312 1120 931 972
66 89 59 45 19 0 0 0 0 1 70 148 287 512 794 957 1100 1161 1278 1360 1255 1147
157 137 84 82 41 19 36 35 20 5 0 0 43 255 638 1017 1178 1219 1286 1343 1387 1381
280 207 177 168 183 93 45 54 31 75 58 72 149 283 553 839 972 1056 1161 1241 1370 1431
242 197 164 128 178 361 357 198 148 92 96 104 214 322 483 731 998 1296 1472 1421 1437 1452
223 276 256 208 149 106 144 336 369 280 233 145 167 206 266 473 510 669 948 1484 1569 1513
204 298 380 407 444 395 245 237 302 378 384 318 212 99 109 214 605 625 571 681 1068 1459
373 385 401 505 611 664 655 523 389 381 482 509 468 309 169 136 442 731 830 845 747 762
579 576 568 588 652 822 1005 1002 835 749 639 632 694 557 433 427 611 755 896 1108 1182 1223
748 786 844 820 768 866 1092 1221 1429 1382 1358 1160 1058 1002 781 724 1088 1127 1133 1210 1326 1270
771 849 896 991 1164 1307 1341 1438 1557 1656 1750 1797 1597 1635 1360 1134 1383 1531 1645 1707 1810 1909

GFSNIL_con_mlcape_069.txt.gz
CAPE
132 176 146 235 226 172 105 91 399 489 645 955 1365 1574 1729 1645 1559 1563 1548 1562 1324 1115
89 86 151 223 236 206 236 58 52 175 369 573 881 1260 1685 1600 1667 1656 1607 1500 1588 1676
227 248 234 268 202 219 249 193 86 82 200 453 667 892 1211 1416 1748 1757 1858 1770 1641 1511
308 333 313 249 284 311 271 288 299 276 265 550 690 888 1052 1107 1355 1718 1810 2073 1966 1814
327 370 346 317 331 343 318 305 304 337 222 303 505 742 921 889 1248 1606 1655 1880 2051 2019
353 414 388 399 432 366 367 330 317 355 320 177 516 650 896 1029 1181 1638 1824 1983 2122 2059
440 455 467 492 514 444 432 422 379 386 353 343 366 448 471 764 1016 1312 1579 1788 1915 1999
565 582 618 697 638 593 538 543 548 506 487 495 547 405 481 637 898 1152 1366 1733 1846 2030
674 684 681 721 745 788 691 579 605 525 510 522 597 303 141 365 684 992 1274 1130 1507 1836
759 774 748 783 783 820 886 987 867 801 787 705 728 359 78 70 363 710 988 1080 1102 1101
740 742 790 798 795 740 707 735 828 901 1003 944 920 535 127 35 341 735 961 1090 1094 1066
626 705 859 919 931 917 950 926 839 828 890 874 867 542 201 93 401 605 867 1202 1333 1393
748 752 808 869 906 1004 1105 1138 1292 1281 1314 1089 874 818 342 234 767 904 1011 1368 1605 1405
888 887 955 1017 1119 1243 1386 1554 1761 1700 1846 1834 1578 1376 774 458 1044 1289 1537 1659 1798 1978

GFSNIL_con_mlcape_072.txt.gz
CAPE
651 479 648 781 484 475 253 142 212 942 1237 1409 1373 1709 1857 1728 1411 1650 1346 1759 1570 785
835 633 359 709 791 650 614 432 513 560 869 877 1135 1427 1778 1625 1887 1945 2059 1958 2046 1958
830 872 739 668 819 884 688 752 571 608 447 607 1059 1280 1640 1244 1603 2157 1966 1669 1678 1974
783 809 874 642 845 1148 1174 1025 1186 827 755 471 843 1285 1635 1529 1247 1671 2202 2272 2304 2437
989 973 784 966 908 1082 1263 1367 1355 1240 1137 866 753 1207 1640 1634 1089 1658 2025 2261 2482 2627
964 940 992 1078 1152 1077 1244 1380 1430 1390 1285 1164 744 762 1264 1525 1559 1560 1838 2256 2451 2612
1192 1206 1009 1246 1367 1337 1379 1471 1481 1512 1415 1308 1076 655 640 856 1356 1510 1627 2006 2380 2598
1362 1410 1496 1556 1560 1521 1519 1478 1555 1609 1530 1406 1233 725 732 583 599 1039 1549 1717 1875 2128
1568 1591 1577 1706 1705 1697 1632 1632 1691 1634 1630 1456 1204 561 258 470 534 631 970 1233 1469 1714
1625 1689 1699 1672 1775 1778 1776 1799 1805 1804 1763 1655 1662 1041 415 250 444 448 803 1237 1269 1069
1765 1782 1857 1846 1929 1970 1886 1930 1899 1853 1876 1845 1789 1334 845 375 618 898 1090 1220 1476 1573
1771 1837 1902 1917 1978 1973 2044 2043 2076 2110 2137 2078 2028 1475 1023 690 850 835 1160 1433 1664 1897
1810 1907 1939 2045 2034 2026 1968 1885 1759 1821 1952 1985 2105 1948 1044 751 1047 917 919 1328 1864 1578
1668 1983 2041 2140 2136 2149 2002 1906 2068 2032 2047 2050 2033 2087 1377 837 1225 958 990 1066 1058 1473

GFSNIL_con_mlcape_075.txt.gz
CAPE
801 295 141 965 422 180 155 145 1646 1680 1357 1361 1716 1324 1638 1707 1487 1522 1635 1778 1744 1270
655 348 202 842 1170 938 670 251 373 561 1343 1259 1110 1360 1860 1498 1584 1637 1912 1910 1948 1584
896 883 919 1328 1558 1112 950 899 824 859 804 1068 1046 1309 1705 1385 1782 2126 1662 1819 2168 1940
1112 940 992 1134 1474 1283 1414 1418 1329 1183 1102 788 859 1380 1843 1762 1368 1948 1951 1928 1974 1998
1401 1293 1363 1154 1115 1420 1630 1918 1808 1833 1506 1231 808 1250 1748 1710 1091 1324 1470 1788 2194 2213
1468 1561 1422 1483 1366 1339 1620 1979 1918 2072 2123 1792 1272 1141 1619 1930 1804 1128 1448 1810 2253 2370
1735 1763 1571 1592 1676 1678 1896 2120 2137 2314 2370 2148 1828 1320 1053 1451 1895 1923 1572 1706 2045 2146
1874 1910 1898 1707 1851 2028 2089 2178 2316 2455 2452 2302 1927 1451 1276 1105 1365 1819 1836 1726 1920 2158
1801 2111 2027 1892 1962 2135 2196 2231 2406 2413 2474 2347 1758 952 773 1067 1038 1130 1402 1696 2087 2258
1838 2140 2200 2136 2178 2301 2341 2419 2367 2551 2559 2528 2519 1098 595 440 972 1175 1313 1493 1765 1705
1945 2246 2402 2469 2503 2546 2622 2452 2493 2672 2744 2717 2617 1910 1075 572 761 854 1056 1436 1816 2027
2101 2327 2648 2590 2692 2806 2857 2858 2852 3051 2885 2825 2641 1892 1366 1055 1247 1156 1435 1905 1959 1928
2339 2578 2793 2840 2736 2873 2965 2836 2442 2679 3020 2981 2892 2583 1534 1179 1454 1272 1275 1615 1986 1809
2684 2771 2949 3074 3129 3131 2947 2423 2792 2722 2949 3061 2855 3128 2182 1353 1799 1339 1229 1159 906 1163

GFSNIL_con_mlcape_078.txt.gz
CAPE
950 273 565 1154 210 749 575 767 1296 1232 1866 1737 1588 1579 1809 1738 1860 1861 1457 2004 1587 1810
1226 1196 424 774 1156 307 462 937 1510 1434 1797 1568 1813 1625 1817 1594 1512 1783 1832 1874 1754 1535
355 900 696 93 1029 1108 1359 690 1697 1990 1737 1565 1941 1682 2025 1597 1770 1758 1702 2030 1959 1958
567 494 234 809 621 1259 894 1112 1312 1323 1224 1597 1462 1773 1744 1624 1884 1728 2004 1359 2284 1965
817 611 468 57 1560 1558 1953 1920 2000 1443 2021 1392 1394 1429 1677 1867 1386 1624 1967 2032 1716 1984
1068 1026 769 406 887 1773 1256 1569 1780 2286 1621 2063 1647 1292 1784 2155 1852 1798 1733 1812 2176 2294
1348 1353 1192 1182 686 1139 1882 1686 2035 1874 2368 2320 2187 1799 1435 2025 2214 2226 2022 2152 1960 2421
1624 1432 1639 1641 1711 1364 1299 1730 2047 2299 2301 2617 2606 2243 1911 1583 2098 2133 2260 2221 1881 1956
1817 1799 1688 1740 1885 1857 1615 1812 2236 2316 2468 2649 2697 2201 1486 1617 1299 1846 2001 1833 1931 2143
1795 2034 2027 2069 1942 1990 1950 1925 2283 2416 2459 2561 2669 1989 1231 1093 1448 1235 1463 1931 2011 2071
1735 2011 2296 2181 2182 2039 2167 2255 2191 2396 2546 2637 2726 2457 1517 826 1048 1357 1509 1540 1468 1506
1823 2065 2345 2451 2320 2288 2257 2356 2412 2439 2633 2656 2655 2504 2130 1213 900 959 1164 1244 1184 1524
2144 2037 2357 2554 2514 2528 2545 2570 2593 2611 2768 2996 3019 2745 2086 1608 1593 1361 1255 1453 1564 1565
2787 2202 2490 2786 2829 2856 2824 2848 2852 2869 2944 3295 3261 3234 2533 1505 1928 1735 1745 1731 1708 1893

GFSNIL_con_mlcape_081.txt.gz
CAPE
209 47 303 1124 919 803 725 576 681 1591 1344 1150 911 1155 1401 1275 1031 1565 1262 1013 1230 579
431 1 105 286 914 802 768 821 757 926 1530 1331 1292 1064 1555 1278 1038 1560 1525 1073 895 744
171 317 65 95 657 664 232 565 976 982 1361 1305 1261 1268 1389 1386 1201 1274 1273 1088 1589 1303
0 484 413 434 148 787 654 1507 1388 1218 1058 1528 1286 1388 1494 1458 1283 1516 1276 1191 1448 1854
0 84 327 393 192 180 563 823 1556 1205 1279 1248 1098 1219 1524 1349 1367 1419 1564 1528 1515 1228
259 0 219 151 201 199 539 698 1004 1331 1200 1271 1204 977 1063 1278 1177 1208 1334 1857 1793 1600
396 320 26 16 0 436 667 1372 1319 1594 1425 1464 1186 1079 986 1215 1366 1364 1124 1576 2004 1866
571 438 515 213 116 0 1150 963 1034 1449 1580 1625 1542 1574 1322 1088 1320 1557 1372 1531 1629 1920
972 783 684 717 571 254 1 1455 1328 1047 1122 1341 1927 1789 1633 1498 1230 1472 1644 1538 1674 1917
1188 1122 968 1017 951 972 619 167 1049 1523 1568 1538 1526 1756 1827 1741 1611 1256 1353 1638 1590 1293
1486 1294 1212 1083 1200 1271 1441 1184 960 1123 1546 1750 1962 1930 1779 1745 1507 1464 1273 1120 1283 1536
1429 1515 1497 1268 1257 1395 1429 1614 1400 1477 1894 1910 1959 1923 1913 1653 1190 1070 1278 1261 1105 1023
1468 1549 1619 1722 1541 1693 1641 1531 1798 1821 1742 2007 2101 2058 1870 1726 1773 1056 955 1064 1248 1239
1842 1610 1725 1818 1951 1856 1902 1834 1725 1816 2014 2100 2110 2389 2037 1646 2059 1779 1259 969 877 1045

GFSNIL_con_mlcape_084.txt.gz
CAPE
0 10 170 527 412 478 659 838 954 830 1005 993 632 834 931 1258 1021 1159 1081 836 1190 803
24 0 2 606 791 539 570 548 621 926 948 960 735 564 968 953 843 967 1147 752 635 633
0 75 6 62 636 802 519 487 442 729 979 1109 896 970 829 928 939 909 943 1120 811 695
0 26 184 25 68 717 639 605 761 673 890 1039 1085 949 993 1084 986 851 957 918 958 932
0 0 152 188 1 14 760 732 641 616 949 955 957 936 756 799 1051 1055 1164 1343 1120 1064
0 0 9 202 241 33 130 727 1219 1137 947 962 893 992 1066 1145 1105 1025 992 1195 1295 1478
151 0 0 60 52 240 221 239 661 1172 1038 745 766 905 859 843 882 958 886 1044 1118 1559
289 161 0 0 43 0 218 293 370 779 975 1145 1057 953 799 780 637 545 549 867 1133 1055
293 272 151 0 0 0 0 221 379 425 1342 1252 1247 1083 896 803 745 775 702 587 823 1095
295 361 293 306 58 4 0 0 159 498 628 1248 1401 1301 1168 1130 1089 912 946 864 788 836
884 531 429 399 447 275 191 35 0 93 932 896 892 962 1090 1045 1135 1208 1070 1089 1091 1025
923 927 818 743 688 656 575 525 252 34 303 1018 1323 1157 960 776 936 1152 1269 1282 1121 1198
76 1179 1103 1068 973 954 919 969 905 709 573 531 714 846 820 944 1319 983 943 1040 1145 1011
1 304 1414 1238 1149 1077 1133 1093 1207 1229 1132 1163 1309 1411 1073 979 1474 1481 1273 958 825 765

GFSNIL_con_mlcape_087.txt.gz
CAPE
0 6 87 213 371 712 762 851 932 976 914 939 932 868 707 1006 1037 1058 733 861 1099 799
0 0 0 119 390 616 654 834 864 941 1058 1040 953 704 865 806 961 840 855 925 611 671
0 0 0 7 243 675 569 481 630 815 997 908 1025 580 797 891 820 802 630 885 857 663
0 0 0 0 0 146 792 648 523 530 839 1027 1017 1004 769 643 870 894 713 812 981 938
0 0 0 0 0 17 145 589 650 558 538 762 1006 1058 973 837 999 1021 777 846 868 839
0 0 0 0 0 0 44 107 636 774 773 873 803 960 1049 977 730 837 943 1007 1281 1411
0 0 0 0 0 0 0 56 47 742 903 778 923 966 921 947 831 906 975 950 940 954
83 0 0 0 0 0 0 1 44 144 820 1148 1024 910 843 828 965 976 843 795 832 784
124 109 0 0 0 0 0 0 8 134 229 404 915 945 677 675 738 768 721 597 563 607
136 162 170 20 0 0 0 0 0 0 143 295 395 620 729 820 875 807 777 738 698 698
302 244 239 209 82 0 0 0 0 0 0 95 292 442 715 899 882 873 824 843 861 772
0 119 478 327 281 249 26 0 0 0 0 0 26 305 325 676 1043 1090 1109 1078 888 811
0 0 0 477 438 340 319 192 118 42 0 0 5 23 56 86 561 690 733 845 775 699
1 1 0 0 221 555 510 468 447 471 342 99 79 317 245 223 510 667 712 597 534 596

GFSNIL_con_mlcape_090.txt.gz
CAPE
0 4 234 272 114 238 482 630 706 814 738 852 813 829 743 791 896 964 767 784 1084 1021
0 0 66 198 136 192 342 645 656 812 649 907 946 825 821 772 912 1045 1037 890 857 753
0 0 0 0 75 149 274 552 710 783 863 802 979 933 671 789 879 958 888 856 980 848
0 0 0 0 0 20 246 499 492 526 639 868 802 917 848 588 705 845 867 811 795 974
0 0 0 0 0 0 43 158 459 571 539 716 827 889 971 947 840 627 826 842 955 960
2 0 3 0 0 0 0 0 36 186 595 551 678 778 871 974 1025 979 774 990 1029 1068
0 0 0 0 0 0 0 0 0 108 274 634 766 851 918 875 987 986 877 734 853 1001
2 0 0 0 0 0 0 0 0 2 122 244 633 846 840 967 998 995 881 845 904 915
76 38 0 0 0 0 0 0 0 0 0 71 331 737 841 967 914 909 842 911 930 850
142 138 99 4 0 0 0 0 0 0 0 0 53 159 360 590 864 770 690 748 772 766
234 215 153 113 11 0 0 0 0 1 17 0 0 12 83 177 366 577 669 777 864 866
12 269 297 243 218 117 0 0 0 0 0 29 13 0 0 0 105 250 331 586 828 888
2 1 1 231 292 248 170 109 2 0 0 0 29 5 0 0 1 0 87 515 721 659
2 3 2 1 0 95 222 317 291 156 82 14 0 0 0 0 157 125 37 42 60 184

GFSNIL_con_mlcape_093.txt.gz
CAPE
504 505 643 894 841 922 1002 1216 1491 1386 1446 960 1116 1455 1523 1520 1670 1713 1676 1643 1872 1848
379 281 341 774 877 792 954 1215 1389 1472 1278 1316 1384 1525 1533 1490 1536 1782 1987 2031 1713 1654
247 177 199 434 814 744 669 875 1295 1351 1355 1352 1576 1714 1470 1525 1625 1427 1704 1664 1740 1773
223 147 213 99 494 848 759 764 1048 1476 1499 1527 1551 1804 1365 1466 1446 1473 1713 1670 1592 1538
404 261 159 118 0 307 730 861 862 1226 1294 1402 1476 1686 1306 1031 1475 1430 1307 1526 1697 1535
428 377 285 219 158 70 172 520 882 1075 1012 1344 1460 1562 1545 1591 1749 1840 1804 1695 1651 1653
348 517 375 463 434 240 137 106 367 649 714 876 1329 1488 1558 1589 1631 1718 1788 1844 1661 1477
493 497 476 357 494 565 422 251 208 292 552 888 1067 1360 1588 1654 1630 1508 1697 1804 1711 1428
523 455 372 323 278 337 428 453 403 321 202 261 641 507 595 1187 1581 1690 1632 1604 1700 1603
499 550 506 393 289 263 273 365 419 377 410 307 163 175 252 290 1320 1704 1640 1534 1493 1555
8 469 685 621 495 398 339 313 389 441 446 440 439 36 0 3 429 1254 1536 1562 1497 1419
0 2 12 496 519 507 300 308 307 371 445 487 482 170 0 0 36 365 963 1163 1274 1295
0 0 0 0 12 355 388 152 199 204 314 357 459 341 19 0 114 55 73 552 1031 753
0 0 0 2 2 0 64 347 422 386 308 299 333 351 50 0 117 337 380 206 92 174

GFSNIL_con_mlcape_096.txt.gz
CAPE
1460 1322 1109 1020 426 915 884 1063 1894 1063 1493 1609 1397 1893 2109 1736 1241 1604 1762 2028 1980 1105
1548 1374 783 586 845 860 1025 1046 1902 1567 834 1088 1419 1714 1915 1563 1773 1821 1880 1843 2187 1550
1473 1502 1306 905 985 745 1000 1291 1438 1896 1637 1178 1093 1460 1489 1479 1789 2005 1634 1342 1758 2064
1257 1329 1312 937 906 1011 1424 1454 1577 1975 1854 1686 1562 1683 1723 1624 1357 1837 1547 1672 1814 1770
1152 1182 1071 1056 840 826 1130 1592 1475 1456 1807 2020 2000 2005 1765 1142 1211 1633 1646 1721 1643 1628
1106 1062 961 1051 1118 851 802 1042 1205 1319 1611 1886 1954 2004 2215 1661 1414 1586 1725 1868 1852 1436
868 966 945 1108 1203 1205 1053 953 871 1064 1285 1550 1825 1918 1909 1978 2047 1862 1526 2010 2055 1671
944 801 875 1060 1043 1182 1280 1176 1081 902 803 1034 1222 1454 1901 1894 1868 2133 2138 2014 2141 1666
914 1015 1077 1118 1293 1252 1282 1343 1282 1199 939 647 389 303 893 1506 1763 1858 1996 1885 2246 2044
300 871 1011 1087 1060 1149 1235 1238 1268 1297 1213 1018 828 141 197 643 1088 1339 1615 1814 1842 1921
6 3 138 787 1007 1020 1126 1114 1200 1220 1270 1218 1181 747 238 54 704 1042 1313 1516 1656 1804
3 4 0 7 106 424 1006 1098 1129 1146 1221 1363 1308 869 459 163 287 70 758 1176 1567 1741
0 0 1 1 1 5 41 560 974 962 1037 1152 1261 1208 682 221 474 390 11 107 1107 1193
0 0 0 2 0 0 0 46 280 549 851 912 1043 1177 660 329 521 559 536 257 3 2

GFSNIL_con_mlcape_099.txt.gz
CAPE
1815 1319 809 1153 648 688 721 948 1637 1407 1372 1766 1666 1641 1697 1733 1335 1467 1794 1792 1707 1910
2021 1832 765 811 991 1123 786 1794 2023 1063 1704 1470 1403 1563 1813 1784 1567 1905 1845 1754 2084 1497
1864 2050 1826 1049 1075 648 983 852 946 1440 1058 1205 1448 1616 1745 1444 1696 1653 1719 1129 1688 1957
1729 1930 2049 1610 1297 1215 1203 1318 1633 1840 1513 1512 1265 1489 1787 1754 1934 2051 1756 1781 1722 1893
1748 1777 1770 1795 1445 1345 1307 1407 1443 1804 1917 1821 1652 1666 1591 1570 864 1361 1369 1254 1432 1570
1723 1783 1601 1609 1644 1399 1426 1403 1455 1520 1684 1728 1853 2013 1899 1903 1575 1641 1772 1570 1335 1305
1566 1739 1623 1518 1587 1692 1543 1469 1450 1577 1555 1562 1743 1821 1710 1832 2060 1808 1612 1734 1621 1350
1140 1273 1514 1570 1519 1601 1771 1675 1593 1481 1295 1225 1307 1284 1635 1727 1647 2008 1979 1779 1782 1575
807 1015 1378 1387 1568 1719 1613 1838 1864 1774 1535 1265 723 96 547 1262 1656 1750 1976 2077 2194 2108
5 42 720 1319 1557 1596 1601 1673 1700 1892 1830 1718 1637 892 74 161 901 1484 1921 1846 2237 1860
0 3 5 36 1113 1184 1444 1556 1528 1576 1755 1812 1908 1389 853 265 307 949 1419 1673 1969 1940
0 0 3 6 1 77 766 1059 1547 1482 1471 1517 1909 1617 1134 823 799 352 670 1305 1592 1928
0 0 0 0 1 3 2 206 348 813 1235 1180 1321 1576 1348 991 1119 947 771 867 902 581
2 0 0 0 0 2 4 4 2 123 350 974 1183 1403 1157 915 1337 1274 988 917 855 500

GFSNIL_con_mlcape_102.txt.gz
CAPE
1366 1165 988 964 1119 373 257 488 1057 1482 1390 1548 1612 1704 1550 1834 1411 1681 1064 1563 1974 1796
1910 1460 737 676 438 698 690 513 1634 1679 1572 1534 1558 1646 1457 1357 1474 1498 1696 2026 1755 1217
2166 2003 1259 1729 850 1166 1255 884 630 437 1701 1585 1510 1520 1560 1675 1601 1638 1834 1236 1700 1632
2116 2272 2170 1794 1076 774 1195 773 143 0 422 1038 1368 1631 1708 1442 1373 1281 1317 1602 1619 2029
2156 2177 2216 2038 1785 1324 1117 1121 1149 970 1304 1385 1481 1390 1746 1512 1686 1408 1742 1672 1405 1708
1782 1597 2005 2330 2138 1840 1522 1403 1484 1398 1522 1449 1336 1540 1584 1677 1197 1478 1642 1767 1641 1446
1368 1546 1606 1765 2004 1944 1774 1685 1705 1927 1925 1875 1742 1705 1529 1887 1728 1313 1655 2018 1888 1769
316 824 970 1308 1344 1644 1912 1978 1850 1913 2037 2092 1882 1592 1683 1636 1622 1542 1471 1663 1676 2234
10 68 172 701 1053 1254 1512 1945 2076 2036 1986 1716 1605 623 533 1709 1494 1767 1747 1522 1833 2309
2 4 1 10 161 834 1064 1214 1499 1600 1890 2036 1940 1326 627 151 360 926 1519 1655 1507 1576
0 0 0 0 2 10 232 1039 1102 1290 1503 1525 1767 1863 1504 950 815 564 764 960 1433 1804
0 0 0 0 0 0 0 27 442 994 1215 1367 1452 1631 1342 1225 1308 1208 1010 634 1056 1428
0 0 0 0 0 0 0 0 0 33 636 1042 1386 1405 1245 927 1285 1551 1443 1393 1128 703
0 0 0 0 0 0 0 0 0 0 6 180 710 1204 929 809 1057 1437 1444 1375 1345 1330

GFSNIL_con_mlcape_105.txt.gz
CAPE
569 572 229 451 861 1067 878 828 771 1252 1284 1112 1247 1166 1293 1315 1280 1586 835 801 926 724
992 339 268 414 837 843 319 480 1089 1144 1241 1169 1034 1223 1426 1185 1084 931 1365 863 1289 1069
1220 1104 1235 1460 1311 903 767 448 37 578 1085 1342 1317 1506 1099 981 1348 1474 1287 1097 876 1300
1201 1246 1143 1027 1041 909 667 467 0 381 700 968 1461 1238 1392 1193 1327 1228 1447 1337 1524 1307
1237 1287 1088 963 1660 961 905 695 429 48 0 657 1309 1242 1088 980 823 1112 989 1128 1300 1154
1208 1402 1195 1301 1417 1583 1297 1018 804 306 809 989 1044 1367 1282 1416 1336 1255 1374 1457 1377 1309
467 871 1025 1382 1810 1988 1703 1407 1400 1334 1361 1353 1378 1112 1208 1112 1185 1452 1218 1447 1506 1661
123 150 386 815 1164 1482 1829 1751 1477 1473 1651 1736 1512 1309 1493 1453 1243 1413 1174 923 1438 1866
96 52 24 79 343 1024 1148 1201 1553 1557 1357 1426 1856 1608 1404 1321 1282 1627 1216 1068 1054 1076
0 0 0 0 24 152 339 808 1000 1165 1309 1614 1632 1571 1219 550 369 1310 1599 1772 1480 1230
0 0 0 0 0 0 4 131 277 732 1062 1263 1371 1422 1485 1001 777 847 703 545 932 1344
0 0 0 0 0 0 0 0 9 25 120 481 1067 1161 999 792 912 1048 1099 1030 906 775
0 0 0 0 0 0 0 0 0 0 0 0 150 509 719 550 655 988 1060 1254 1289 1107
0 0 0 0 0 0 0 0 0 0 0 0 0 0 104 253 289 588 738 843 999 1278

GFSNIL_con_mlcape_108.txt.gz
CAPE
178 440 487 554 742 741 760 924 843 1055 1264 1082 787 953 1109 1212 1153 1250 1090 786 1287 964
393 501 482 347 568 855 825 743 913 1015 1140 1061 926 1051 957 984 1089 948 1015 984 759 1094
598 307 128 0 470 764 665 558 746 893 1084 1013 902 1010 1198 1047 892 1099 1063 1167 1176 893
1032 1025 642 1075 1101 1010 585 489 162 621 441 871 1169 1204 1301 835 1265 1060 977 995 1103 1189
412 846 1093 1239 974 806 732 452 23 89 394 550 947 1307 1289 1176 1035 977 968 805 657 765
293 339 947 866 1013 960 711 637 299 50 240 287 576 1199 1229 1104 959 814 1094 798 948 1056
105 273 621 957 750 854 1018 785 659 605 270 25 621 828 1200 1228 1240 1220 1164 1096 1252 1415
27 104 197 214 271 695 845 1184 1229 1008 841 1111 1123 1240 1201 1007 1122 1027 1096 1250 1137 1261
21 14 30 65 91 97 362 977 1173 1371 1407 1548 1670 1604 1240 1219 1277 1320 955 1133 1222 949
0 0 0 2 3 18 49 218 463 826 1105 1371 1426 1462 1354 1164 956 958 867 1043 1361 1210
0 0 0 0 0 0 0 11 86 112 209 389 746 898 951 850 867 832 757 723 744 858
0 0 0 0 0 0 0 0 0 0 4 26 90 144 332 351 683 870 841 882 934 969
0 0 0 0 0 0 0 0 0 0 0 0 0 0 5 44 239 476 715 755 816 799
0 0 0 0 0 0 0 0 0 0 0 0 0 7 1 3 74 186 307 411 523 520

GFSNIL_con_mlcape_111.txt.gz
CAPE
277 144 416 533 640 723 741 775 898 928 882 798 719 814 1047 1093 959 1199 1024 683 1208 1216
74 9 155 439 547 696 626 696 723 834 986 1030 1013 884 768 965 1176 973 887 1050 787 879
444 342 241 350 354 499 640 596 613 816 949 962 853 878 992 956 871 801 982 1078 1212 985
656 603 359 55 46 350 466 527 534 614 832 918 825 787 891 953 856 909 968 1021 1039 950
393 513 706 763 696 1009 787 453 235 304 541 618 654 987 1146 1232 1082 905 929 916 836 643
23 258 565 946 1130 1034 675 611 376 39 21 281 444 829 1162 1136 1091 933 823 885 785 825
18 97 323 521 910 967 827 658 519 314 29 60 214 346 777 1161 1082 978 933 890 1110 1033
36 7 94 211 357 436 558 866 837 681 504 383 198 46 595 821 1050 1071 991 991 1023 1096
1 8 16 53 96 114 197 271 436 769 1147 1209 950 1161 1014 1134 1060 925 1048 1173 1041 948
0 0 1 0 1 0 6 48 87 154 243 539 872 746 846 901 1039 1254 1220 1154 935 703
0 0 0 0 0 0 0 0 0 0 1 12 146 184 359 546 654 719 815 776 744 765
0 0 0 0 0 0 0 0 0 0 0 0 0 0 4 41 197 465 541 524 630 709
0 0 0 0 0 0 0 0 0 0 0 0 0 0 2 0 24 191 245 358 458 87
0 0 0 0 0 0 0 0 0 0 0 0 0 1 0 0 9 11 33 94 148 27

GFSNIL_con_mlcape_114.txt.gz
CAPE
255 226 303 423 588 576 496 611 788 769 764 791 692 789 958 1109 927 968 870 776 1046 1322
133 125 244 386 525 597 591 667 691 845 873 873 909 739 740 982 1051 951 879 941 832 942
285 38 73 156 364 577 654 588 628 670 789 956 951 893 821 764 849 792 819 886 1139 996
496 409 265 116 161 335 491 558 535 485 568 774 741 716 787 883 913 846 782 1007 1090 983
332 370 531 454 223 109 256 344 462 432 457 623 789 759 764 797 990 920 865 928 894 819
16 110 328 458 544 577 686 588 317 245 210 361 529 554 771 1011 1108 1044 977 823 808 744
0 0 39 280 565 791 840 713 469 253 87 0 156 253 512 772 979 957 895 839 816 929
3 0 34 168 258 411 709 729 682 569 521 357 236 114 139 261 686 874 1034 1024 934 934
5 4 1 2 66 172 252 309 422 431 597 943 896 471 619 581 924 1018 969 872 961 1077
0 0 0 1 8 12 16 7 57 72 127 268 252 154 304 553 1004 1145 1189 1201 1206 1075
0 0 0 0 0 0 0 0 0 0 2 6 0 0 0 60 438 618 621 593 595 709
0 0 0 0 0 0 0 0 0 0 0 0 0 0 0 0 46 177 278 330 414 483
0 0 0 0 0 0 0 0 0 0 0 0 0 0 0 0 5 13 62 185 139 0
0 0 0 0 0 0 0 0 0 0 0 0 0 0 0 0 0 0 0 0 0 0

GFSNIL_con_mlcape_117.txt.gz
CAPE
687 619 865 999 935 822 930 741 993 1160 1086 1407 1545 1446 1638 1856 1701 1672 1775 1583 1684 2044
693 457 586 751 1001 1046 815 693 979 1139 1255 1349 1390 1330 1519 1732 1762 1678 1474 1738 1550 1753
651 475 377 480 805 1101 993 1120 1203 1121 1163 1467 1513 1553 1304 1478 1709 1592 1531 1474 1764 1717
548 575 452 476 566 803 1066 1155 1147 1150 947 1195 1511 1576 1451 1450 1588 1382 1434 1568 1733 1824
644 542 784 624 397 496 684 857 980 1125 1019 955 958 1228 978 965 1176 1396 1339 1556 1611 1658
454 507 768 981 1051 814 938 1005 851 714 743 903 985 1014 1117 1109 1171 1135 1250 1529 1504 1633
87 104 106 368 1062 1200 1285 1042 1001 800 672 462 424 777 998 1135 1063 984 999 1136 1214 1018
5 12 87 147 383 1056 1385 1379 1194 1023 876 600 491 444 592 804 841 904 934 1175 1303 1192
14 3 0 79 230 461 740 857 998 1099 1353 1555 1175 334 427 541 726 933 1140 1068 1231 1240
0 16 14 4 19 56 188 371 429 418 496 505 359 136 345 537 1414 1450 1654 1768 1765 1717
0 0 1 2 1 2 3 29 72 104 159 237 56 0 0 92 953 1236 1305 1301 1287 1294
0 0 0 0 0 0 0 0 0 7 13 91 20 0 0 56 223 518 573 695 639 643
0 0 0 0 0 0 0 0 0 2 5 0 0 0 0 0 0 0 0 80 0 0
0 0 0 0 0 0 0 0 0 0 0 1 0 0 0 0 0 0 0 0 0 0

GFSNIL_con_mlcape_120.txt.gz
CAPE
689 573 750 844 696 597 603 988 1177 1419 1484 1676 1833 1777 2306 1701 1649 2000 2001 2262 2409 2262
877 583 664 979 1122 936 831 539 916 1087 1040 1343 1384 1648 1916 1309 1817 1884 1868 1899 2183 2035
975 1096 1074 882 1090 1249 1056 793 1009 950 1099 1163 1360 1356 1645 1322 1825 2209 1669 1130 2015 2091
792 1005 1281 919 1165 1427 1254 1171 1239 1163 1027 1062 1207 1414 1675 1282 1468 1886 1796 1809 1848 1836
785 669 765 964 933 1371 1484 1653 1300 1324 1207 1165 1180 1392 1442 1167 763 1347 1285 1379 1558 1637
696 748 738 831 707 1039 1229 1215 1294 1566 1107 898 1081 1372 1219 1257 1214 1204 1118 1091 1274 1345
864 883 856 1205 1028 1104 1047 1071 1365 1598 1123 1307 1331 1495 1348 1351 1265 1147 958 954 1081 1162
522 666 731 793 1222 1469 1271 787 928 1421 1588 1417 1178 1048 1384 1360 1284 1063 935 838 1031 1047
179 203 226 364 503 1026 1464 1442 1547 1499 1421 1547 1022 412 296 752 1377 1237 1301 1229 1243 1299
140 166 243 196 240 261 534 1247 1540 1562 1607 1526 900 74 168 435 1314 1482 1366 1375 1380 1118
2 6 47 147 177 226 274 338 525 662 889 474 13 0 0 97 1488 1561 1518 1446 1387 1480
2 0 0 3 20 97 169 214 243 253 338 18 0 0 0 145 743 1080 1074 734 245 573
0 0 0 0 0 13 21 1 129 66 0 0 0 0 0 0 76 35 112 92 15 0
0 0 0 0 0 0 0 14 0 0 0 0 0 0 0 0 0 0 0 0 0 0

GFSNIL_con_mlcape_123.txt.gz
CAPE
1115 1016 1173 1177 955 448 467 872 1555 1447 1495 1656 2103 1861 2051 2073 1676 1991 2221 2502 2483 2643
1127 1066 936 1307 1443 964 787 808 1002 1306 1502 1381 1642 1751 1673 1503 1667 2107 1914 1918 2157 1904
920 1115 983 1079 1397 1209 1096 642 941 1129 1070 1230 1440 1485 1608 1146 1753 1788 1896 1474 1706 2190
654 795 1273 909 1004 1343 1471 1098 1076 1032 1145 1152 1162 1328 1672 1285 1937 1956 1676 1526 1793 1516
638 734 966 1222 1252 1317 1427 1290 1396 1155 1259 1196 1188 1278 1379 1320 864 1164 1222 1057 1203 1162
770 552 735 1079 1085 1313 1310 1387 1285 1242 1158 1392 1280 1409 1532 1624 1533 1269 1055 906 799 956
1082 806 584 996 1103 1236 1400 1128 1253 1342 1330 1295 1323 1449 1406 1268 1334 1229 1061 915 935 883
964 1065 900 1057 1190 1104 911 1047 1240 1154 1118 1127 1224 1038 1490 1214 948 1068 948 835 857 937
1083 991 1048 1167 1340 1437 1371 1289 1302 1382 1406 1384 1079 193 324 768 1587 1170 1204 1328 1234 1206
444 492 621 779 713 1015 1525 1598 1403 1315 1150 1073 785 72 148 295 906 1536 1115 1501 1575 1373
92 172 299 404 521 470 745 1232 1379 1317 1207 354 0 0 0 33 511 1609 1565 1396 1396 1567
0 1 0 46 123 245 340 347 324 418 58 0 0 0 0 0 1013 1215 1099 442 83 202
3 3 0 0 0 6 51 173 33 0 0 0 0 0 0 0 329 359 415 324 1 0
0 0 0 0 0 0 14 0 0 0 0 0 0 0 0 0 0 2 14 2 1 0

GFSNIL_con_mlcape_126.txt.gz
CAPE
1369 1156 1159 1108 1162 933 662 575 1395 1244 1704 1060 1541 1634 1720 1933 1604 2168 2006 1918 1806 1573
1213 878 1049 1030 768 757 812 974 1219 1472 1609 1149 1347 1532 1685 1462 1653 1516 1870 1419 1867 2098
1251 1186 1231 1234 1447 1306 1182 673 1143 1126 1069 1191 840 1334 1230 1509 1629 1115 1483 1748 1562 2120
1143 1328 1202 1159 1290 1366 1558 1146 875 934 1116 845 1305 1304 1260 1252 931 1346 1597 1546 1361 1437
948 1416 1267 1044 1104 1395 1503 1447 1287 1116 1236 1170 1263 1250 1192 1435 1003 1247 1214 1155 1274 1021
706 832 1254 1150 1061 1071 1261 1182 1152 1228 1087 998 1183 1259 1206 1266 1171 1160 1155 1048 991 887
834 849 644 1047 910 1039 906 1211 1278 1276 883 1248 1371 1327 1254 995 1066 1056 1179 1020 794 1014
1004 819 854 767 1016 1191 1388 1328 953 1191 1187 1131 1274 609 560 1098 1183 1097 920 726 852 821
946 833 761 731 934 760 1203 989 1015 1145 805 818 366 120 146 378 1212 1206 829 770 1211 1303
841 955 766 664 888 1074 958 1056 913 842 785 483 34 6 62 148 588 916 825 557 978 884
66 61 242 371 426 588 975 1156 1249 1066 492 5 0 0 0 16 315 602 1290 1079 869 527
0 0 1 4 56 253 565 712 327 102 8 0 0 0 0 1 622 1221 579 1 0 4
0 0 0 0 1 0 42 27 0 0 0 0 0 0 0 0 187 348 377 0 0 0
2 0 0 0 0 0 2 0 0 0 0 0 0 0 0 0 0 0 13 16 0 0